Location: Unspecified
(0.0000°N, 0.0000°E)
Time: 01:40:01
(UTC+00:00)

AO-73 - Pass Details

Date: 24 October 2019
Orbit: 583 x 663 km, 97.6° (Epoch: 20 November)

Event Time Altitude Azimuth Distance (km) Brightness Sun altitude
Rises 05:07:10 0° 47° (NE) 2,981 ? -9.1°
Reaches altitude 10° 05:10:36 10° 75° (ENE) 2,066 ? -8.2°
Maximum altitude 05:12:37 13° 102° (ESE) 1,872 ? -7.8°
Drops below altitude 10° 05:14:38 10° 128° (SE) 2,057 ? -7.3°
Sets 05:18:01 0° 156° (SSE) 2,956 ? -6.4°
